カタログに戻る

COSMOS 2499 DEB

運用中PO
NORAD 49931·DEBRIS·🇷🇺 Russia

打ち上げ May 23, 2014 から Plesetsk Cosmodrome

Loading…

次のパス (今後24時間)

TLE

最新Source: Space-Track

元期: Sep 14, 2026, 13:09 UTC

1 49931U 14028N   26257.54824638  .00002394  00000-0  73697-2 0  9995
2 49931  82.5391 192.8629 0271272  83.1297 280.0590 12.93313603229406

AllMySatでCOSMOS 2499 DEBをリアルタイム追跡

Download on the App Store